| time (UTC) | temp F | wind direction | speed knots | gust knots | rain 1hr in | rain 24hr in | rain mn in | humidity % | barometer mb |
| 20260506195212 | 51 | 192 | 6.1 | 11.3 | 0.01 | 0.10 | 0.10 | 93 | 1010.7 |
| 20260506194211 | 51 | 210 | 5.2 | 9.6 | 0.01 | 0.10 | 0.10 | 93 | 1010.6 |
| 20260506193211 | 51 | 246 | 5.2 | 11.3 | 0.01 | 0.09 | 0.09 | 93 | 1010.5 |
| 20260506192213 | 52 | 220 | 3.5 | 9.6 | 0.02 | 0.09 | 0.09 | 93 | 1010.4 |
| 20260506191211 | 52 | 229 | 5.2 | 11.3 | 0.02 | 0.09 | 0.09 | 92 | 1010.2 |
| 20260506190211 | 52 | 192 | 4.3 | 9.6 | 0.02 | 0.09 | 0.09 | 92 | 1010.1 |
| 20260506185212 | 52 | 215 | 4.3 | 8.7 | 0.03 | 0.09 | 0.09 | 92 | 1010.1 |
| 20260506184211 | 52 | 227 | 5.2 | 10.4 | 0.03 | 0.09 | 0.09 | 92 | 1010.0 |
| 20260506183211 | 52 | 234 | 6.1 | 11.3 | 0.03 | 0.08 | 0.08 | 92 | 1009.9 |
| 20260506182211 | 52 | 233 | 6.1 | 14.8 | 0.03 | 0.08 | 0.08 | 92 | 1009.8 |
| 20260506181211 | 52 | 212 | 6.1 | 13.9 | 0.03 | 0.07 | 0.07 | 92 | 1009.7 |
| 20260506180211 | 52 | 222 | 6.1 | 12.2 | 0.03 | 0.07 | 0.07 | 92 | 1009.6 |
| 20260506175210 | 52 | 242 | 7.0 | 11.3 | 0.03 | 0.06 | 0.06 | 92 | 1009.5 |
| 20260506174210 | 52 | 269 | 7.0 | 13.0 | 0.03 | 0.06 | 0.06 | 91 | 1009.4 |
| 20260506173210 | 53 | 228 | 6.1 | 12.2 | 0.03 | 0.05 | 0.05 | 91 | 1009.3 |
| 20260506172210 | 53 | 211 | 5.2 | 11.3 | 0.03 | 0.05 | 0.05 | 91 | 1009.2 |
| 20260506171210 | 53 | 248 | 7.8 | 12.2 | 0.03 | 0.04 | 0.04 | 91 | 1009.2 |
| 20260506170210 | 53 | 237 | 5.2 | 10.4 | 0.03 | 0.04 | 0.04 | 91 | 1009.1 |
| 20260506165210 | 53 | 221 | 4.3 | 10.4 | 0.03 | 0.03 | 0.03 | 91 | 1009.0 |
| 20260506164210 | 53 | 236 | 6.1 | 11.3 | 0.03 | 0.03 | 0.03 | 90 | 1009.0 |
| 20260506163210 | 54 | 244 | 7.0 | 12.2 | 0.02 | 0.02 | 0.02 | 90 | 1008.9 |
| 20260506162210 | 54 | 178 | 7.0 | 11.3 | 0.02 | 0.02 | 0.02 | 90 | 1008.9 |
| 20260506161210 | 54 | 206 | 6.1 | 11.3 | 0.01 | 0.01 | 0.01 | 90 | 1008.9 |
| 20260506160210 | 54 | 243 | 7.8 | 13.9 | 0.01 | 0.01 | 0.01 | 89 | 1008.9 |
| 20260506155210 | 54 | 221 | 5.2 | 10.4 | 0.00 | 0.00 | 0.00 | 89 | 1008.9 |
| 20260506154210 | 55 | 213 | 5.2 | 11.3 | 0.00 | 0.00 | 0.00 | 89 | 1008.8 |
| 20260506153210 | 55 | 204 | 5.2 | 9.6 | 0.00 | 0.00 | 0.00 | 88 | 1008.7 |
| 20260506152210 | 55 | 234 | 6.1 | 10.4 | 0.00 | 0.00 | 0.00 | 88 | 1008.7 |
| 20260506151210 | 55 | 199 | 4.3 | 10.4 | 0.00 | 0.00 | 0.00 | 87 | 1008.6 |
| 20260506150209 | 55 | 227 | 5.2 | 13.9 | 0.00 | 0.00 | 0.00 | 87 | 1008.6 |
| 20260506145212 | 55 | 250 | 6.1 | 11.3 | 0.00 | 0.00 | 0.00 | 87 | 1008.5 |
| 20260506144211 | 55 | 202 | 7.0 | 12.2 | 0.00 | 0.00 | 0.00 | 86 | 1008.5 |
| 20260506143211 | 55 | 234 | 7.8 | 13.0 | 0.00 | 0.00 | 0.00 | 87 | 1008.4 |
| 20260506142210 | 55 | 206 | 6.1 | 12.2 | 0.00 | 0.00 | 0.00 | 86 | 1008.3 |
| 20260506141210 | 55 | 218 | 7.8 | 13.0 | 0.00 | 0.00 | 0.00 | 86 | 1008.3 |
| 20260506140211 | 56 | 202 | 6.1 | 14.8 | 0.00 | 0.00 | 0.00 | 86 | 1008.2 |
| 20260506135214 | 56 | 186 | 9.6 | 14.8 | 0.00 | 0.00 | 0.00 | 86 | 1008.1 |
| 20260506134214 | 56 | 235 | 7.8 | 17.4 | 0.00 | 0.00 | 0.00 | 86 | 1008.1 |
| 20260506133214 | 56 | 225 | 8.7 | 15.6 | 0.00 | 0.00 | 0.00 | 87 | 1008.0 |
| 20260506132213 | 56 | 230 | 7.0 | 14.8 | 0.00 | 0.00 | 0.00 | 87 | 1008.0 |
| 20260506131215 | 56 | 283 | 8.7 | 13.9 | 0.00 | 0.00 | 0.00 | 87 | 1007.9 |
| 20260506130214 | 56 | 268 | 8.7 | 13.9 | 0.00 | 0.00 | 0.00 | 87 | 1007.8 |
| 20260506125214 | 57 | 222 | 7.8 | 13.0 | 0.00 | 0.00 | 0.00 | 87 | 1007.7 |
| 20260506124214 | 57 | 246 | 7.0 | 16.5 | 0.00 | 0.00 | 0.00 | 87 | 1007.6 |
| 20260506123214 | 58 | 228 | 7.8 | 13.9 | 0.00 | 0.00 | 0.00 | 87 | 1007.6 |
| 20260506122214 | 58 | 280 | 5.2 | 16.5 | 0.00 | 0.00 | 0.00 | 87 | 1007.4 |
| 20260506121213 | 58 | 267 | 7.8 | 14.8 | 0.00 | 0.00 | 0.00 | 86 | 1007.3 |
| 20260506120213 | 58 | 238 | 8.7 | 13.0 | 0.00 | 0.00 | 0.00 | 86 | 1007.3 |
| 20260506115214 | 58 | 195 | 7.8 | 13.9 | 0.00 | 0.00 | 0.00 | 85 | 1007.4 |
| 20260506114214 | 59 | 273 | 7.8 | 15.6 | 0.00 | 0.00 | 0.00 | 84 | 1007.3 |
| 20260506113214 | 59 | 258 | 7.8 | 13.9 | 0.00 | 0.00 | 0.00 | 83 | 1007.2 |
| 20260506112213 | 59 | 252 | 6.1 | 13.9 | 0.00 | 0.00 | 0.00 | 82 | 1007.1 |
| 20260506111213 | 59 | 225 | 10.4 | 15.6 | 0.00 | 0.00 | 0.00 | 80 | 1007.2 |
| 20260506110213 | 60 | 235 | 6.1 | 12.2 | 0.00 | 0.00 | 0.00 | 80 | 1007.1 |
| 20260506105213 | 60 | 182 | 7.8 | 13.9 | 0.00 | 0.00 | 0.00 | 79 | 1007.2 |
| 20260506104213 | 60 | 223 | 6.1 | 10.4 | 0.00 | 0.00 | 0.00 | 79 | 1007.1 |
| 20260506103213 | 60 | 236 | 7.8 | 13.0 | 0.00 | 0.00 | 0.00 | 80 | 1007.0 |
| 20260506102213 | 60 | 291 | 4.3 | 10.4 | 0.00 | 0.00 | 0.00 | 80 | 1007.0 |
| 20260506101213 | 60 | 250 | 5.2 | 10.4 | 0.00 | 0.00 | 0.00 | 80 | 1006.9 |
| 20260506100220 | 60 | 211 | 3.5 | 7.8 | 0.00 | 0.00 | 0.00 | 80 | 1006.9 |
| 20260506095213 | 60 | 226 | 6.1 | 10.4 | 0.00 | 0.00 | 0.00 | 79 | 1006.8 |
| 20260506094213 | 60 | 234 | 3.5 | 8.7 | 0.00 | 0.00 | 0.00 | 78 | 1006.8 |
| 20260506093213 | 60 | 238 | 5.2 | 11.3 | 0.00 | 0.00 | 0.00 | 77 | 1006.7 |
| 20260506092213 | 60 | 211 | 6.1 | 10.4 | 0.00 | 0.00 | 0.00 | 77 | 1006.7 |
| 20260506091212 | 61 | 203 | 3.5 | 10.4 | 0.00 | 0.00 | 0.00 | 77 | 1006.7 |
| 20260506090212 | 61 | 196 | 7.0 | 10.4 | 0.00 | 0.00 | 0.00 | 78 | 1006.5 |
| 20260506085213 | 61 | 198 | 6.1 | 10.4 | 0.00 | 0.00 | 0.00 | 78 | 1006.5 |
| 20260506084213 | 60 | 205 | 5.2 | 9.6 | 0.00 | 0.00 | 0.00 | 79 | 1006.4 |
| 20260506083213 | 60 | 196 | 5.2 | 9.6 | 0.00 | 0.00 | 0.00 | 80 | 1006.2 |
| 20260506082212 | 60 | 238 | 6.1 | 11.3 | 0.00 | 0.00 | 0.00 | 80 | 1006.2 |
| 20260506081213 | 60 | 229 | 6.1 | 9.6 | 0.00 | 0.00 | 0.00 | 81 | 1006.2 |
| 20260506080212 | 60 | 236 | 3.5 | 10.4 | 0.00 | 0.00 | 0.00 | 82 | 1006.2 |
| 20260506073213 | 59 | 233 | 6.1 | 12.2 | 0.00 | 0.00 | 0.00 | 87 | 1006.3 |
| 20260506072213 | 58 | 250 | 6.1 | 12.2 | 0.00 | 0.00 | 0.00 | 89 | 1006.3 |
| 20260506071213 | 58 | 234 | 5.2 | 11.3 | 0.00 | 0.00 | 0.00 | 91 | 1006.3 |
| 20260506070213 | 57 | 255 | 2.6 | 8.7 | 0.00 | 0.00 | 0.00 | 92 | 1006.2 |
| 20260506062213 | 54 | 178 | 5.2 | 8.7 | 0.00 | 0.00 | 0.00 | 92 | 1006.4 |
| 20260506061213 | 53 | 246 | 2.6 | 7.8 | 0.00 | 0.00 | 0.00 | 92 | 1006.6 |
| 20260506060213 | 53 | 186 | 4.3 | 7.0 | 0.00 | 0.00 | 0.00 | 92 | 1006.6 |
| 20260506051212 | 51 | 236 | 0.9 | 3.5 | 0.00 | 0.00 | 0.00 | 91 | 1006.4 |
| 20260506050212 | 51 | 221 | 2.6 | 6.1 | 0.00 | 0.00 | 0.00 | 91 | 1006.6 |
| 20260506044214 | 51 | 171 | 3.5 | 6.1 | 0.00 | 0.00 | 0.00 | 91 | 1006.7 |
| 20260506043213 | 51 | 204 | 2.6 | 5.2 | 0.00 | 0.00 | 0.00 | 91 | 1006.8 |
| 20260506042212 | 51 | 169 | 2.6 | 7.0 | 0.00 | 0.00 | 0.00 | 91 | 1006.8 |
| 20260506041213 | 51 | 203 | 2.6 | 5.2 | 0.00 | 0.00 | 0.00 | 90 | 1006.7 |
| 20260506040212 | 51 | 198 | 3.5 | 6.1 | 0.00 | 0.00 | 0.00 | 90 | 1006.8 |
| 20260506035213 | 51 | 229 | 1.7 | 5.2 | 0.00 | 0.00 | 0.00 | 90 | 1006.9 |
| 20260506034213 | 51 | 180 | 2.6 | 6.1 | 0.00 | 0.00 | 0.00 | 90 | 1007.0 |
| 20260506033212 | 51 | 222 | 3.5 | 6.1 | 0.00 | 0.00 | 0.00 | 90 | 1007.0 |
| 20260506032212 | 51 | 198 | 4.3 | 7.0 | 0.00 | 0.00 | 0.00 | 90 | 1006.9 |
| 20260506031212 | 51 | 217 | 3.5 | 6.1 | 0.00 | 0.00 | 0.00 | 90 | 1006.9 |
| 20260506030212 | 52 | 175 | 3.5 | 7.8 | 0.00 | 0.00 | 0.00 | 90 | 1007.0 |
| 20260506025213 | 52 | 202 | 2.6 | 5.2 | 0.00 | 0.00 | 0.00 | 89 | 1006.9 |
| 20260506024213 | 52 | 181 | 2.6 | 5.2 | 0.00 | 0.00 | 0.00 | 89 | 1007.1 |
| 20260506023213 | 52 | 190 | 2.6 | 5.2 | 0.00 | 0.00 | 0.00 | 89 | 1007.1 |
| 20260506022212 | 52 | 178 | 1.7 | 4.3 | 0.00 | 0.00 | 0.00 | 89 | 1007.2 |
| 20260506021212 | 53 | 234 | 1.7 | 6.1 | 0.00 | 0.00 | 0.00 | 89 | 1007.3 |
| 20260506020212 | 53 | 204 | 2.6 | 6.1 | 0.00 | 0.00 | 0.00 | 89 | 1007.6 |
| 20260506015212 | 53 | 204 | 3.5 | 6.1 | 0.00 | 0.00 | 0.00 | 89 | 1007.7 |
| 20260506014212 | 53 | 217 | 3.5 | 7.0 | 0.00 | 0.00 | 0.00 | 89 | 1007.8 |
| 20260506013212 | 53 | 196 | 2.6 | 8.7 | 0.00 | 0.00 | 0.00 | 89 | 1007.9 |
| 20260506012212 | 53 | 213 | 3.5 | 7.0 | 0.00 | 0.00 | 0.00 | 89 | 1008.0 |
| 20260506011212 | 53 | 217 | 2.6 | 6.1 | 0.00 | 0.00 | 0.00 | 89 | 1008.1 |
| 20260506010213 | 54 | 236 | 3.5 | 6.1 | 0.00 | 0.00 | 0.00 | 89 | 1008.0 |
| 20260506005212 | 54 | 219 | 4.3 | 7.8 | 0.00 | 0.00 | 0.00 | 89 | 1007.9 |
| 20260506004211 | 54 | 218 | 3.5 | 7.0 | 0.00 | 0.00 | 0.00 | 89 | 1007.9 |
| 20260506003212 | 54 | 209 | 3.5 | 7.0 | 0.00 | 0.00 | 0.00 | 89 | 1008.0 |
| 20260506002212 | 54 | 192 | 3.5 | 7.8 | 0.00 | 0.00 | 0.00 | 89 | 1008.0 |
| 20260506001212 | 54 | 183 | 4.3 | 8.7 | 0.00 | 0.00 | 0.00 | 89 | 1008.2 |
| 20260506000212 | 54 | 187 | 3.5 | 7.0 | 0.00 | 0.00 | 0.00 | 90 | 1008.4 |
| 20260505235211 | 54 | 247 | 3.5 | 7.0 | 0.00 | 0.00 | 0.00 | 90 | 1008.4 |
| 20260505234211 | 54 | 210 | 3.5 | 8.7 | 0.00 | 0.00 | 0.00 | 90 | 1008.5 |
| 20260505233212 | 54 | 200 | 3.5 | 8.7 | 0.00 | 0.00 | 0.00 | 90 | 1008.8 |
| 20260505232212 | 54 | 215 | 3.5 | 8.7 | 0.00 | 0.00 | 0.00 | 90 | 1008.8 |
| 20260505231211 | 54 | 216 | 5.2 | 9.6 | 0.00 | 0.00 | 0.00 | 90 | 1008.9 |
| 20260505230211 | 54 | 220 | 5.2 | 11.3 | 0.00 | 0.00 | 0.00 | 90 | 1008.9 |
| 20260505225212 | 54 | 233 | 3.5 | 7.0 | 0.00 | 0.00 | 0.00 | 90 | 1008.8 |
| 20260505224212 | 54 | 196 | 2.6 | 6.1 | 0.00 | 0.00 | 0.00 | 90 | 1008.8 |
| 20260505223212 | 54 | 236 | 2.6 | 5.2 | 0.00 | 0.00 | 0.00 | 90 | 1008.8 |
| 20260505222211 | 54 | 194 | 2.6 | 4.3 | 0.00 | 0.00 | 0.00 | 90 | 1008.8 |
| 20260505221211 | 54 | 182 | 2.6 | 5.2 | 0.00 | 0.00 | 0.00 | 90 | 1008.8 |
| 20260505220211 | 54 | 211 | 1.7 | 4.3 | 0.00 | 0.00 | 0.00 | 90 | 1009.0 |
| 20260505215211 | 54 | 194 | 3.5 | 7.0 | 0.00 | 0.00 | 0.00 | 90 | 1009.1 |
| 20260505214211 | 54 | 230 | 3.5 | 7.0 | 0.00 | 0.00 | 0.00 | 90 | 1009.1 |
| 20260505213211 | 54 | 185 | 3.5 | 7.8 | 0.00 | 0.00 | 0.00 | 89 | 1009.1 |
| 20260505212211 | 54 | 198 | 3.5 | 6.1 | 0.00 | 0.00 | 0.00 | 89 | 1009.0 |
| 20260505211211 | 55 | 194 | 4.3 | 8.7 | 0.00 | 0.00 | 0.00 | 89 | 1008.9 |
| 20260505210211 | 55 | 161 | 4.3 | 8.7 | 0.00 | 0.00 | 0.00 | 88 | 1008.8 |
| 20260505205212 | 55 | 226 | 4.3 | 9.6 | 0.00 | 0.00 | 0.00 | 88 | 1009.0 |
| 20260505204213 | 56 | 174 | 1.7 | 7.8 | 0.00 | 0.00 | 0.00 | 87 | 1008.9 |
| 20260505203212 | 56 | 161 | 2.6 | 5.2 | 0.00 | 0.00 | 0.00 | 87 | 1009.0 |
| 20260505202212 | 56 | 188 | 1.7 | 3.5 | 0.00 | 0.00 | 0.00 | 86 | 1009.0 |
| 20260505201212 | 57 | 181 | 0.9 | 2.6 | 0.00 | 0.00 | 0.00 | 86 | 1008.7 |
| 20260505200212 | 57 | 209 | 1.7 | 6.1 | 0.00 | 0.00 | 0.00 | 86 | 1008.6 |